Location: Cedar Brake
(32.2526°N, 97.8459°W)
Time: 05:14:14
(UTC+00:00)

Daily predictions for brighter satellites

Satellite Brightness Start Highest point End
(mag) Time Altitude Azimuth Time Altitude Azimuth Time Altitude Azimuth
Cosmos 1943 Rocket 2.8 01:22:21 10° N 01:27:37 38° ENE 01:32:48 10° SE
Cosmos 2341 Rocket 4.3 01:23:37 10° SSE 01:29:31 47° E 01:35:30 10° NNE
NOSS 3-4 (A) 4.1 01:25:12 10° SW 01:30:16 52° WNW 01:35:37 10° NNE
NOSS 3-4 (C) 4.0 01:25:42 10° SW 01:30:47 53° WNW 01:36:10 10° NNE
Cosmos 2366 rocket 4.2 01:30:26 10° SSE 01:36:19 50° E 01:42:11 10° NNE
Cosmos 1703 Rocket 3.9 01:37:17 10° NNW 01:41:33 69° W 01:45:48 10° S
Cosmos 1933 Rocket 4.4 01:37:44 10° SSW 01:42:01 55° W 01:46:21 10° N
Cosmos 1733 Rocket 3.7 01:41:50 10° SSE 01:45:46 34° E 01:49:45 10° NNE
Resurs 01 Rocket 2.0 01:42:36 10° S 01:46:56 66° W 01:51:16 10° NNW
Cosmos 2278 Rocket 2.5 01:45:31 10° N 01:51:00 49° ENE 01:56:27 10° SE
Cosmos 1048 Rocket 4.3 01:46:10 10° N 01:51:07 45° ENE 01:56:06 10° SE
PSLV R/B 3.9 01:49:38 10° S 01:53:38 62° WSW 01:57:43 10° NNW
CZ-4 R/B 2.5 01:54:19 15° ESE 01:56:12 22° ENE 01:59:07 10° NNE
USA 32 4.3 01:53:16 10° SSE 01:58:11 45° E 02:03:10 10° NNE
Cosmos 1959 Rocket 4.5 01:53:42 10° S 01:59:59 70° E 02:06:15 10° N
OAO 3 Rocket 3.5 01:59:51 10° W 02:04:25 61° N 02:08:13 15° E
CZ-4B R/B 4.2 02:06:03 20° SE 02:08:07 38° ENE 02:11:39 10° N
Cosmos 1125 Rocket 3.7 02:04:29 10° SSW 02:09:40 77° WNW 02:14:56 10° NNE
In-Cosmos 22 Rocket 4.2 02:04:23 10° N 02:09:41 82° W 02:15:02 10° S
Cosmos 1821 Rocket 4.0 02:05:53 10° S 02:12:02 65° E 02:18:17 10° NNE
SL-08 R/B 4.3 02:08:23 10° NE 02:12:33 27° E 02:14:33 21° SE
SL-16 R/B 2.4 02:08:29 10° S 02:13:48 45° ESE 02:19:09 10° NE
Cosmos 2218 Rocket 4.1 02:10:36 10° S 02:16:42 79° W 02:22:53 10° N
ERS-1 Rocket 3.8 02:15:33 23° ESE 02:17:35 31° ENE 02:21:58 10° N
SJ-6B 3.9 02:14:32 10° S 02:17:58 40° W 02:21:24 10° NNW
OAO 2 Rocket 3.6 02:20:06 10° W 02:25:15 66° N 02:28:40 21° ENE
Meteor 2-15 Rocket 4.3 02:21:04 10° S 02:27:08 81° E 02:33:13 10° N
PAYLOAD B 4.5 02:27:33 27° SE 02:30:14 48° ENE 02:35:28 10° N
USA 234 3.5 02:24:39 10° NE 02:31:10 72° NW 02:37:40 10° SW
USA 59 Rocket 1.0 02:27:49 10° N 02:31:21 31° ENE 02:32:15 29° E
IRAS Rocket 4.1 02:30:04 18° SSE 02:34:17 84° ENE 02:39:46 10° NNW
Cosmos 1400 Rocket 3.3 02:30:58 10° SSW 02:34:27 53° W 02:38:00 10° N
Helios 1A Rocket 3.0 02:31:36 10° N 02:34:44 54° WNW 02:37:50 10° SSW
BREEZE-M DEB (TANK) 3.9 02:32:09 10° NW 02:35:33 87° SW 02:41:32 26° SE
Cosmos 1346 Rocket 4.1 02:36:11 10° NNE 02:38:05 22° NE 02:38:05 22° NE
Cosmos 1656 Rocket 4.3 02:37:49 10° N 02:42:53 37° ENE 02:43:52 34° E
Meteor 1-31 Rocket 2.8 02:42:18 37° S 02:43:29 65° WSW 02:47:00 10° NNW
Cosmos 44 4.0 02:39:38 10° SW 02:44:26 57° WNW 02:49:33 10° NNE
Geosat 3.8 02:40:43 10° NNE 02:45:42 70° ESE 02:50:39 10° SSW
SL-4 R/B 1.6 02:42:49 10° SW 02:46:34 82° SE 02:47:05 64° ENE
Cosmos 2285 Rocket 3.9 02:41:06 10° S 02:47:24 68° ESE 02:53:42 10° NNE
USA 238 DEB 4.0 02:39:39 10° NNW 02:47:25 87° WSW 02:52:18 28° SSE
USA 238 4.0 02:39:50 10° NNW 02:47:36 88° WSW 02:52:26 28° SSE
CSL-04 Rocket 4.2 02:43:59 12° S 02:49:00 59° W 02:54:30 10° NNW
Okean-O 4.1 02:53:57 24° NE 02:53:57 24° NE 02:56:31 10° NNE
SPOT 5 3.9 02:49:06 11° SSW 02:53:11 40° W 02:57:22 10° NNW
BREEZE-M DEB (TANK) 4.4 02:49:37 10° NW 02:54:18 29° NNE 02:54:31 29° NNE
SKYMED 3 4.3 02:50:45 10° N 02:54:38 76° WNW 02:55:53 41° SSW
Feng Yun 1-1 Rocket 4.1 02:53:28 33° SSE 02:56:06 87° WSW 03:01:34 10° NNW
Cosmos 1674 Rocket 3.4 02:54:20 10° N 02:58:33 68° ENE 02:58:33 68° ENE
Cosmos 1908 Rocket 3.5 02:59:30 67° ENE 02:59:30 67° ENE 03:03:28 10° NNE
Cosmos 2150 Rocket 3.9 02:56:37 10° SSW 03:01:44 81° WNW 03:06:55 10° NNE
Gbstr 26 Del rocket 3.3 02:56:27 10° SW 03:02:15 87° NW 03:04:53 27° NE
Okean O Rocket 2.8 03:03:31 29° NE 03:03:31 29° NE 03:06:14 10° N
MOS 1 4.3 03:03:40 40° S 03:05:50 81° WSW 03:11:31 10° NNW
Terra 1.6 03:06:02 71° S 03:06:33 89° WSW 03:11:16 10° NNW
Mugunghwa Rocket 4.3 03:01:42 10° WSW 03:08:00 48° S 03:08:35 47° SSE
NOSS 2-1 (D) 3.7 03:05:56 10° NNW 03:09:27 64° NNE 03:09:27 64° NNE
Cosmos 1943 Rocket 4.2 03:06:43 10° NW 03:10:59 23° W 03:15:14 10° SSW
Cosmos 1378 Rocket 4.2 03:06:59 10° NNW 03:11:12 50° W 03:12:07 42° SW
NOSS 2-1 (E) 4.2 03:13:15 10° NNW 03:16:08 46° N 03:16:08 46° N
Cosmos 2369 Rocket 3.2 03:12:57 10° N 03:17:11 31° NE 03:17:11 31° NE
ADEOS 3.6 03:19:18 65° SSW 03:19:59 75° WSW 03:25:12 10° NNW
NOSS 2-1 (C) 4.1 03:18:51 10° NNW 03:21:52 55° NNW 03:21:52 55° NNW
Cosmos 1943 3.8 03:27:20 44° NE 03:27:20 44° NE 03:31:14 10° NNE
ASTEX 1 3.6 03:26:48 66° N 03:26:48 66° N 03:31:01 10° N
CZ-4B R/B 3.5 03:25:11 49° SSW 03:26:26 62° W 03:32:01 10° NNW
Cosmos 1025 Rocket 3.9 03:25:38 10° NNW 03:29:02 48° NW 03:29:02 48° NW
CZ-4 R/B 3.6 03:29:16 16° WSW 03:30:06 17° W 03:32:36 10° NW
Cosmos 1934 Rocket 4.0 03:30:38 54° SSW 03:32:10 80° W 03:38:24 10° N
BREEZE-M DEB (TANK) 4.5 03:29:43 10° SW 03:34:33 30° SW 03:34:33 30° SW
Milstar 3 3.8 03:55:44 10° SW 04:20:09 - E 04:02:46 55° S
Cosmos 2123 Rocket 4.5 03:58:50 10° NNW 04:04:52 56° W 04:04:52 56° W
USA 59 Rocket 2.8 04:16:37 10° WNW 04:17:48 15° W 04:17:48 15° W
Cosmos 2369 Rocket 4.5 04:57:10 10° NW 04:58:59 18° WNW 04:58:59 18° WNW
ACS3 Solar Sail 4.4 06:29:02 10° NE 06:29:12 11° NE 06:29:12 11° NE
ATLAS 3B R/B 4.3 06:46:20 10° NNW 06:50:58 31° NNE 06:50:58 31° NNE
USA 281 4.4 07:58:47 36° NE 07:58:47 36° NE 08:04:15 10° N
SL-16 R/B 4.1 08:08:52 10° N 08:11:55 26° NNE 08:11:55 26° NNE
ACS3 Solar Sail 3.5 08:10:19 10° N 08:12:45 24° NNW 08:12:45 24° NNW
USA 267 3.6 08:37:55 10° NE 08:43:24 57° N 08:43:24 57° N
ALOS 4.1 08:49:15 10° NNE 08:51:38 27° NE 08:51:38 27° NE
ADEOS II 3.2 08:55:16 10° NNE 08:59:43 37° E 08:59:43 37° E
ATLAS 5 CENTAUR R/B 3.5 09:05:36 48° ESE 09:05:36 48° ESE 09:15:45 10° NE
CZ-2D R/B 2.6 09:05:12 10° NNE 09:09:35 58° NE 09:09:35 58° NE
DELTA 2 R/B (1) 4.1 09:15:52 51° E 09:15:52 51° E 09:20:10 10° ENE
Cosmos 1354 Rocket 4.4 09:13:48 10° N 09:18:58 61° ENE 09:18:58 61° ENE
Cosmos 2360 Rocket 2.3 09:21:38 10° NNW 09:27:18 72° ENE 09:29:01 45° SE
Cosmos 1766 Rocket 4.5 09:25:20 10° N 09:29:26 44° E 09:29:26 44° E
Cosmos 2333 Rocket 3.5 09:24:04 10° NNW 09:26:40 28° NW 09:26:40 28° NW
CZ-3 Stage 3 3.1 09:33:58 53° W 09:36:04 83° S 09:58:26 10° E
ADEOS Rocket 4.2 09:29:12 10° N 09:36:05 37° WNW 09:36:33 37° WNW
Resurs 1-4 Rocket 2.5 09:33:04 10° N 09:37:29 50° NW 09:37:29 50° NW
ISS -1.2 09:41:04 18° N 09:41:04 18° N 09:42:20 10° NNE
Cosmos 1553 Rocket 4.3 09:38:05 31° SSE 09:41:04 62° E 09:47:13 10° NNE
USA 281 4.4 09:45:37 25° WNW 09:45:37 25° WNW 09:48:39 10° NW
Cosmos 2322 Rocket 2.0 09:37:11 10° NNW 09:42:49 75° WSW 09:43:00 74° SW
SL-19 R/B 4.4 09:40:56 10° N 09:46:41 69° WNW 09:47:40 58° WSW
H-2A R/B 2.0 09:45:08 10° N 09:50:16 64° WNW 09:50:28 63° W
Cosmos 1461 4.3 09:51:56 26° NNW 09:51:56 26° NNW 09:53:59 10° N
Cosmos 2219 Rocket 2.3 09:50:42 10° NNW 09:56:22 76° ENE 10:02:00 10° SSE
SL-16 R/B 4.3 09:53:11 10° NW 09:53:41 12° NW 09:53:41 12° NW
H-2A R/B 4.3 10:01:10 16° NNW 10:01:10 16° NNW 10:02:01 10° NNW
Meteor 1-11 Rocket 4.3 09:56:20 10° NNW 10:01:16 39° W 10:01:16 39° W
ARGOS 3.2 09:59:49 10° NNE 10:05:12 75° ESE 10:08:16 26° S
METEOR-M 4.1 10:01:35 10° N 10:06:51 66° WNW 10:08:22 45° SW
Cosmos 2084 Rocket 3.5 10:03:16 10° NNW 10:07:30 75° ENE 10:11:45 10° SE
Meteor 2-11 Rocket 4.4 10:02:58 10° N 10:09:09 89° W 10:15:16 10° S
Cosmos 1151 Rocket 3.9 10:07:41 17° SSE 10:10:36 47° E 10:14:40 10° NNE
Gbstr 26 Del rocket 4.4 10:09:27 10° NNW 10:12:50 33° NE 10:16:22 10° ESE
Cosmos 372 Rocket 3.9 10:08:04 10° NNW 10:13:14 83° ENE 10:18:19 10° SSE
Cosmos 1842 Rocket 3.8 10:14:10 44° WNW 10:14:10 44° WNW 10:18:10 10° N
Meteor 2-4 Rocket 4.4 10:22:34 29° W 10:23:06 30° WNW 10:27:45 10° NNW
AQUA 3.7 10:19:03 10° N 10:23:42 69° WNW 10:25:57 30° SSW
Cosmos 1758 4.4 10:22:34 10° N 10:26:00 40° E 10:29:24 10° SSE
Aureole 1 Rocket 3.6 10:21:24 10° NNW 10:26:03 53° WSW 10:31:51 10° S
USA 307 3.7 10:27:45 17° SE 10:28:08 18° ESE 10:30:09 10° ENE
ALOS 4.0 10:27:25 10° NNW 10:29:40 15° WNW 10:29:40 15° WNW
Alouette 2 Rocket 4.5 10:28:38 10° NNW 10:30:40 24° WNW 10:30:40 24° WNW
Sich 1 2.8 10:28:19 10° N 10:32:28 86° W 10:36:36 10° S
Cosmos 1417 Rocket 4.4 10:27:33 10° S 10:33:45 89° E 10:39:55 10° N
SL-08 R/B 4.5 10:30:24 10° NNW 10:36:42 69° W 10:42:57 10° S
Okean 3 Rocket 3.5 10:32:24 10° N 10:36:52 81° W 10:41:20 10° S
ADEOS II 3.4 10:35:29 10° NNW 10:39:20 21° WNW 10:40:31 20° W
Cosmos 2297 Rocket 2.2 10:34:56 14° SSW 10:39:49 88° ESE 10:45:29 10° NNE
BREEZE-M DEB (TANK) 4.3 10:37:29 10° NW 10:42:44 88° NE 10:59:15 10° SE
Cosmos 1805 Rocket 3.9 10:40:14 10° N 10:44:36 68° E 10:48:54 10° SSE
CZ-2D R/B 4.0 10:47:52 10° NW 10:49:48 12° WNW 10:50:50 11° WNW
H-2A R/B 2.5 10:47:16 10° N 10:50:57 37° WNW 10:53:10 20° SW
S3M 4.0 10:47:31 10° S 10:53:52 74° W 11:00:11 10° N
Cosmos 2263 Rocket 4.4 10:50:39 10° SSE 10:55:07 25° ESE 10:59:36 10° NE
Cosmos 158 Rocket 4.0 10:50:14 10° SSW 10:55:25 89° ESE 11:00:46 10° NNE
Cosmos 1898 Rocket 3.6 10:51:00 10° NNW 10:55:58 50° WSW 11:00:55 10° S
COSMOS 2428 2.9 10:51:08 10° NNW 10:56:51 77° ENE 11:02:30 10° SSE
Cosmos 1386 Rocket 4.5 10:51:33 10° NNW 10:57:36 63° W 11:03:46 10° S
NOSS 3-4 (A) 4.0 10:50:47 10° NW 10:58:02 62° WSW 11:06:21 10° SSE
USA 234 3.4 10:52:03 10° SE 10:58:36 83° NE 11:05:09 10° NW
NOSS 3-4 (C) 4.0 10:51:19 10° NW 10:58:36 63° WSW 11:06:56 10° SSE
SL-4 R/B 1.7 10:55:31 10° NW 10:59:16 61° SW 11:02:52 10° SSE
Cosmos 1937 Rocket 3.4 10:54:53 10° NNW 11:00:00 66° WSW 11:05:03 10° S
SL-16 R/B 2.6 10:54:09 10° S 11:00:17 62° WSW 11:06:30 10° NNW
DELTA 2 R/B (1) 4.2 10:56:33 14° W 11:01:12 49° NNW 11:06:34 10° ENE
CZ-3 R/B 3.0 10:44:15 10° W 11:09:02 70° SSW 11:15:56 10° ESE
Cosmos 2360 Rocket 3.9 11:08:57 10° W 11:10:31 11° W 11:10:32 11° W
Cosmos 1939 Rocket 2.6 11:09:04 10° N 11:12:43 84° WNW 11:16:23 10° SSW
Meteor 2-10 Rocket 4.4 11:09:54 10° NW 11:14:15 27° W 11:18:43 10° SSW
CZ-2C R/B 2.7 11:12:01 10° N 11:16:34 44° WNW 11:20:57 10° SW
Meteor 1-13 Rocket 4.3 11:11:40 10° S 11:17:10 83° E 11:22:42 10° N
Meteor 1-28 Rocket 2.8 11:21:37 10° S 11:24:50 62° W 11:28:03 10° NNW
Cosmos 1408 Rocket 4.2 11:21:00 10° NNW 11:24:50 33° W 11:28:39 10° SSW
Cosmos 1814 Rocket 4.2 11:21:07 10° SW 11:26:01 48° WNW 11:30:58 10° N
Cosmos 1703 3.0 11:24:04 10° SSW 11:27:10 45° W 11:30:18 10° N
